Temp
-7 -7 -6 -6 -6 -6 -6 -6 -6 -5 -5 -5 -5 -5 -5 -5 -5 -5 -5 -5 -5 -5 -5 -6 -6 -6 -6 -6 -6 -6 -6 -6 -6 -6 -6 -6 -6 -6 -7 -8 -8 -8 -8 -7 -6 -6 -7
-7 -7 -7 -7 -7 -6 -6 -6 -6 -6 -6 -5 -5 -5 -5 -5 -5 -5 -5 -5 -5 -6 -6 -6 -6 -6 -6 -6 -6 -6 -6 -6 -6 -6 -6 -6 -6 -7 -7 -8 -9 -9 -7 -7 -6 -7 -8
-8 -8 -7 -7 -7 -7 -7 -6 -6 -6 -6 -6 -6 -5 -5 -5 -5 -5 -5 -5 -5 -6 -6 -6 -6 -6 -6 -6 -6 -6 -6 -6 -6 -6 -6 -7 -7 -7 -8 -8 -8 -8 -8 -7 -7 -8 -8
-8 -8 -8 -7 -7 -7 -7 -7 -6 -6 -6 -6 -6 -6 -5 -5 -5 -5 -5 -5 -5 -6 -6 -6 -6 -6 -6 -6 -6 -6 -6 -6 -6 -6 -7 -7 -7 -8 -8 -8 -8 -8 -7 -7 -8 -8 -8
-8 -8 -8 -8 -7 -7 -7 -6 -6 -6 -6 -6 -6 -6 -6 -6 -6 -6 -5 -5 -5 -6 -6 -6 -6 -6 -7 -6 -6 -6 -6 -6 -6 -6 -7 -7 -7 -8 -8 -8 -9 -8 -8 -8 -8 -8 -8
-9 -8 -8 -8 -7 -7 -7 -6 -6 -6 -6 -6 -6 -6 -6 -6 -6 -6 -6 -6 -6 -6 -6 -6 -6 -6 -7 -7 -7 -6 -6 -7 -6 -6 -7 -7 -7 -8 -8 -9 -9 -8 -8 -8 -8 -8 -8
-9 -9 -8 -8 -7 -7 -7 -7 -6 -6 -6 -6 -6 -6 -6 -6 -6 -6 -6 -6 -6 -6 -6 -6 -6 -7 -7 -7 -7 -7 -7 -7 -7 -7 -7 -7 -8 -8 -9 -9 -9 -9 -9 -9 -8 -8 -8
-10 -9 -8 -8 -7 -7 -7 -7 -7 -7 -6 -7 -7 -7 -7 -7 -7 -6 -6 -6 -6 -6 -6 -7 -7 -7 -7 -7 -7 -7 -7 -7 -7 -7 -7 -7 -8 -8 -9 -9 -9 -10 -9 -9 -9 -9 -8
-10 -9 -9 -8 -8 -7 -7 -7 -7 -7 -7 -7 -7 -7 -7 -7 -7 -7 -7 -7 -6 -6 -7 -7 -7 -7 -7 -7 -8 -8 -7 -7 -8 -8 -7 -8 -8 -7 -8 -10 -9 -10 -9 -10 -9 -9 -9
-10 -9 -9 -9 -8 -8 -8 -8 -8 -8 -8 -8 -7 -7 -8 -8 -8 -8 -7 -7 -7 -7 -7 -7 -7 -7 -8 -8 -7 -7 -7 -7 -8 -8 -8 -8 -8 -8 -9 -9 -9 -10 -9 -10 -9 -9 -9
-10 -10 -9 -9 -9 -9 -8 -8 -8 -8 -8 -8 -8 -8 -8 -8 -8 -8 -8 -7 -7 -7 -7 -7 -7 -8 -8 -8 -7 -7 -7 -7 -8 -8 -8 -8 -8 -8 -9 -9 -10 -9 -9 -9 -9 -9 -9
-10 -10 -10 -9 -9 -9 -9 -9 -9 -9 -9 -9 -9 -9 -8 -9 -9 -9 -8 -8 -7 -7 -7 -7 -7 -7 -7 -8 -7 -7 -7 -7 -7 -8 -8 -8 -8 -8 -9 -9 -10 -9 -10 -9 -9 -9 -9
-10 -10 -9 -9 -8 -8 -8 -8 -9 -9 -9 -9 -10 -9 -9 -9 -9 -9 -9 -8 -8 -8 -8 -8 -8 -8 -7 -7 -7 -7 -8 -7 -7 -7 -7 -7 -8 -9 -9 -9 -9 -9 -9 -9 -9 -9 -9
-11 -11 -10 -9 -9 -9 -9 -9 -9 -9 -9 -10 -10 -10 -9 -9 -9 -9 -9 -9 -9 -8 -8 -8 -7 -7 -7 -7 -7 -7 -8 -7 -7 -7 -8 -7 -9 -9 -9 -9 -10 -9 -10 -9 -9 -9 -9
-11 -11 -11 -11 -10 -10 -9 -9 -10 -10 -10 -11 -10 -10 -10 -10 -10 -9 -9 -9 -9 -9 -8 -8 -8 -7 -7 -7 -7 -7 -7 -8 -8 -8 -7 -8 -9 -10 -10 -10 -10 -10 -10 -9 -9 -8 -8
-11 -11 -11 -10 -10 -10 -10 -10 -11 -11 -11 -10 -10 -10 -10 -10 -10 -10 -9 -9 -9 -9 -9 -9 -8 -8 -8 -8 -8 -7 -7 -7 -7 -8 -8 -8 -9 -10 -10 -10 -10 -10 -9 -9 -9 -8 -8
-11 -11 -11 -10 -10 -10 -10 -10 -11 -10 -10 -10 -10 -10 -10 -10 -10 -10 -10 -10 -9 -10 -10 -9 -9 -9 -8 -8 -8 -7 -7 -8 -8 -8 -8 -9 -10 -10 -10 -10 -10 -9 -10 -9 -9 -8 -8
-11 -11 -10 -10 -10 -10 -10 -10 -10 -10 -10 -10 -10 -10 -10 -10 -10 -10 -10 -10 -10 -10 -10 -10 -9 -9 -9 -8 -8 -8 -7 -8 -8 -8 -8 -8 -10 -10 -10 -10 -9 -9 -9 -9 -9 -9 -8
-11 -10 -10 -10 -10 -10 -10 -10 -10 -10 -10 -10 -10 -10 -11 -11 -10 -10 -10 -10 -10 -10 -10 -10 -10 -10 -9 -9 -9 -9 -9 -8 -8 -8 -8 -9 -9 -10 -10 -9 -9 -9 -9 -9 -10 -9 -9
-11 -10 -10 -10 -10 -10 -10 -10 -10 -10 -10 -10 -10 -10 -11 -11 -11 -10 -10 -10 -10 -10 -10 -10 -10 -10 -9 -9 -9 -10 -10 -8 -8 -8 -9 -9 -9 -9 -9 -9 -9 -9 -9 -10 -10 -9 -9
-11 -10 -10 -10 -10 -10 -10 -10 -10 -10 -10 -10 -10 -10 -10 -11 -11 -11 -11 -10 -10 -10 -10 -10 -10 -10 -10 -10 -10 -10 -10 -10 -9 -9 -9 -9 -9 -9 -9 -9 -9 -9 -9 -10 -9 -9 -9
-11 -10 -10 -10 -10 -10 -10 -10 -10 -10 -10 -10 -11 -11 -11 -11 -11 -11 -10 -10 -11 -10 -10 -11 -10 -10 -10 -10 -10 -10 -10 -10 -10 -10 -10 -10 -9 -9 -9 -9 -9 -9 -9 -9 -9 -9 -9
-10 -10 -10 -10 -10 -10 -10 -10 -10 -10 -10 -10 -11 -11 -11 -11 -11 -11 -10 -10 -11 -11 -10 -11 -10 -10 -10 -10 -10 -10 -10 -10 -10 -10 -10 -10 -10 -10 -10 -10 -9 -9 -9 -9 -9 -9 -9
-10 -10 -10 -10 -10 -10 -10 -10 -10 -10 -10 -10 -11 -11 -12 -11 -11 -11 -10 -10 -11 -10 -11 -11 -10 -11 -10 -10 -10 -10 -10 -10 -10 -10 -10 -10 -9 -10 -10 -10 -10 -9 -9 -9 -9 -9 -9
-10 -10 -10 -10 -10 -10 -10 -10 -10 -10 -10 -10 -11 -11 -11 -11 -11 -11 -11 -10 -11 -11 -10 -10 -10 -10 -10 -11 -10 -11 -10 -10 -11 -10 -10 -10 -10 -10 -9 -10 -9 -9 -9 -10 -9 -9 -9
-10 -10 -10 -10 -10 -10 -10 -10 -10 -10 -10 -10 -11 -11 -11 -11 -11 -11 -11 -11 -11 -11 -11 -11 -11 -11 -10 -11 -11 -11 -11 -11 -10 -10 -11 -11 -10 -10 -10 -10 -10 -9 -9 -10 -8 -9 -10
-11 -11 -11 -10 -10 -10 -10 -10 -10 -10 -10 -10 -10 -11 -11 -11 -11 -11 -11 -11 -11 -12 -12 -11 -11 -11 -11 -11 -11 -11 -11 -11 -11 -11 -11 -11 -10 -10 -9 -9 -10 -10 -10 -11 -10 -10 -9
-11 -11 -11 -11 -10 -10 -10 -10 -10 -10 -10 -10 -10 -10 -11 -11 -11 -11 -11 -11 -12 -12 -12 -12 -12 -12 -12 -11 -12 -11 -11 -11 -11 -11 -11 -11 -11 -11 -11 -11 -10 -10 -11 -10 -11 -10 -10
-11 -11 -11 -11 -11 -10 -10 -10 -10 -10 -10 -10 -10 -10 -10 -11 -11 -11 -11 -11 -11 -12 -12 -12 -12 -12 -12 -12 -11 -11 -11 -11 -11 -11 -11 -11 -11 -11 -12 -11 -11 -12 -12 -11 -11 -11 -10
Height
5871 5870 5870 5870 5869 5869 5869 5870 5870 5870 5871 5871 5871 5872 5873 5873 5874 5874 5874 5874 5874 5875 5876 5878 5879 5881 5881 5882 5884 5886 5888 5890 5893 5895 5896 5898 5899 5901 5902 5904 5906 5908 5908 5913 5913 5912 5911
5867 5866 5866 5866 5866 5865 5865 5865 5866 5866 5867 5867 5868 5868 5869 5870 5871 5871 5871 5871 5871 5872 5873 5875 5877 5879 5880 5881 5882 5884 5886 5888 5891 5894 5896 5897 5899 5901 5902 5904 5905 5906 5907 5911 5910 5910 5910
5864 5863 5862 5861 5861 5861 5861 5861 5861 5862 5863 5864 5864 5865 5865 5866 5867 5868 5868 5868 5868 5869 5870 5872 5874 5876 5878 5880 5881 5883 5885 5887 5889 5892 5895 5897 5898 5900 5901 5902 5903 5904 5907 5908 5909 5910 5910
5859 5859 5858 5857 5856 5856 5856 5856 5856 5857 5858 5859 5860 5860 5861 5862 5863 5864 5865 5865 5866 5866 5867 5869 5872 5874 5877 5877 5879 5881 5883 5885 5888 5890 5893 5895 5897 5899 5899 5901 5902 5904 5908 5909 5910 5910 5910
5854 5854 5853 5852 5851 5851 5851 5851 5852 5851 5852 5854 5854 5855 5856 5857 5859 5860 5862 5862 5863 5863 5865 5867 5869 5872 5874 5875 5877 5879 5882 5884 5887 5889 5891 5893 5896 5897 5899 5900 5903 5905 5908 5909 5911 5911 5909
5849 5848 5848 5847 5846 5846 5846 5846 5846 5846 5846 5847 5848 5849 5851 5852 5854 5855 5857 5859 5860 5860 5861 5863 5866 5870 5871 5873 5875 5877 5880 5882 5885 5888 5889 5892 5894 5895 5897 5899 5903 5905 5907 5909 5910 5910 5908
5844 5843 5842 5841 5841 5840 5840 5840 5840 5840 5841 5841 5842 5843 5845 5846 5848 5850 5853 5855 5858 5858 5858 5860 5863 5865 5867 5870 5872 5875 5878 5880 5883 5886 5888 5890 5892 5893 5896 5898 5901 5905 5906 5908 5909 5909 5907
5839 5837 5836 5835 5834 5834 5834 5833 5833 5834 5834 5835 5835 5836 5837 5840 5842 5844 5848 5850 5852 5854 5855 5856 5859 5861 5864 5867 5870 5873 5876 5879 5881 5884 5886 5889 5890 5891 5894 5896 5900 5903 5906 5908 5908 5908 5907
5834 5832 5831 5829 5828 5827 5827 5826 5826 5826 5827 5827 5828 5829 5831 5833 5836 5839 5843 5845 5846 5848 5851 5853 5856 5858 5861 5864 5867 5870 5873 5876 5879 5881 5883 5885 5887 5890 5892 5896 5900 5903 5906 5907 5908 5907 5905
5829 5827 5825 5823 5822 5821 5820 5820 5819 5819 5819 5820 5820 5822 5823 5826 5831 5834 5837 5838 5841 5844 5847 5850 5852 5855 5857 5860 5864 5867 5870 5873 5875 5878 5880 5883 5886 5889 5892 5896 5899 5902 5904 5906 5907 5907 5906
5824 5822 5820 5818 5816 5815 5814 5813 5813 5813 5812 5813 5813 5815 5817 5819 5824 5829 5830 5833 5836 5840 5843 5847 5849 5852 5855 5859 5862 5865 5867 5870 5873 5874 5878 5881 5884 5887 5891 5895 5898 5901 5902 5904 5905 5906 5906
5820 5818 5815 5813 5811 5809 5808 5807 5807 5806 5806 5806 5806 5808 5810 5814 5819 5823 5824 5828 5832 5837 5839 5843 5845 5848 5852 5856 5859 5862 5864 5867 5870 5872 5875 5878 5881 5886 5891 5893 5897 5899 5902 5905 5905 5906 5906
5816 5813 5809 5807 5805 5803 5801 5800 5799 5799 5799 5799 5800 5801 5804 5808 5814 5817 5820 5824 5829 5830 5835 5839 5842 5845 5849 5853 5857 5860 5862 5864 5867 5870 5872 5877 5880 5886 5889 5892 5896 5898 5901 5905 5906 5906 5907
5812 5808 5805 5801 5798 5796 5794 5793 5791 5791 5791 5791 5792 5794 5798 5803 5808 5811 5816 5820 5823 5827 5830 5835 5839 5842 5846 5850 5854 5856 5860 5862 5865 5868 5872 5876 5880 5884 5888 5891 5895 5897 5900 5904 5905 5906 5906
5809 5805 5801 5798 5795 5793 5790 5787 5785 5784 5784 5784 5785 5787 5792 5797 5802 5807 5813 5815 5819 5823 5827 5832 5836 5839 5843 5847 5851 5853 5857 5859 5862 5866 5870 5874 5878 5882 5885 5888 5892 5894 5898 5902 5902 5904 5906
5806 5803 5799 5796 5793 5790 5786 5782 5780 5778 5778 5779 5781 5783 5788 5793 5798 5803 5809 5812 5816 5820 5824 5829 5833 5837 5841 5845 5849 5851 5854 5858 5860 5864 5867 5872 5876 5879 5882 5885 5888 5891 5896 5899 5900 5903 5904
5804 5801 5797 5793 5790 5787 5783 5780 5776 5775 5775 5776 5778 5781 5785 5790 5795 5801 5805 5809 5814 5818 5822 5827 5831 5835 5838 5843 5846 5849 5852 5855 5857 5861 5864 5869 5873 5876 5879 5881 5883 5887 5891 5895 5898 5900 5902
5803 5799 5795 5791 5788 5785 5781 5778 5775 5775 5775 5776 5777 5780 5784 5788 5794 5798 5802 5806 5811 5816 5820 5824 5829 5833 5837 5840 5843 5846 5849 5851 5855 5859 5863 5866 5868 5873 5877 5879 5880 5883 5888 5892 5895 5898 5900
5801 5798 5794 5790 5786 5783 5780 5778 5775 5775 5775 5776 5777 5780 5782 5786 5791 5795 5799 5803 5809 5814 5818 5822 5827 5831 5836 5839 5842 5844 5846 5849 5852 5856 5860 5863 5867 5871 5875 5878 5879 5880 5884 5888 5892 5895 5896
5800 5797 5793 5789 5786 5782 5780 5777 5775 5774 5775 5775 5776 5779 5782 5785 5789 5794 5798 5803 5807 5812 5817 5821 5825 5830 5834 5837 5840 5842 5844 5847 5850 5852 5856 5860 5866 5871 5874 5875 5876 5879 5882 5886 5889 5891 5893
5799 5795 5792 5788 5785 5782 5779 5777 5775 5774 5774 5775 5776 5778 5780 5784 5788 5791 5795 5800 5805 5809 5814 5819 5823 5827 5832 5835 5838 5841 5843 5845 5848 5850 5853 5858 5863 5867 5870 5872 5874 5876 5880 5883 5885 5887 5889
5798 5795 5791 5788 5785 5782 5779 5777 5775 5773 5773 5774 5775 5777 5779 5782 5785 5789 5794 5798 5803 5808 5813 5817 5821 5826 5830 5833 5836 5838 5842 5845 5847 5850 5853 5857 5861 5863 5866 5869 5871 5873 5876 5878 5880 5882 5884
5797 5794 5790 5787 5784 5781 5778 5776 5775 5773 5773 5773 5775 5777 5779 5781 5784 5788 5792 5797 5801 5806 5810 5814 5818 5822 5826 5829 5831 5835 5838 5841 5845 5849 5852 5855 5858 5860 5862 5864 5866 5869 5871 5873 5874 5876 5878
5796 5793 5789 5786 5784 5781 5778 5776 5775 5773 5773 5773 5774 5776 5778 5781 5783 5786 5790 5795 5799 5803 5807 5811 5816 5819 5823 5825 5827 5830 5830 5835 5839 5842 5847 5849 5852 5854 5856 5858 5859 5863 5865 5867 5868 5870 5871
5793 5790 5788 5785 5782 5780 5778 5776 5774 5773 5772 5772 5773 5775 5777 5779 5782 5785 5788 5791 5796 5801 5805 5810 5813 5816 5818 5818 5817 5824 5820 5828 5830 5832 5838 5843 5845 5847 5849 5850 5853 5856 5858 5858 5856 5860 5862
5791 5788 5785 5783 5781 5778 5777 5775 5774 5772 5772 5772 5773 5774 5775 5777 5780 5783 5785 5789 5793 5797 5802 5804 5810 5812 5815 5816 5818 5820 5821 5825 5827 5827 5831 5835 5840 5840 5844 5844 5846 5849 5849 5848 5848 5850 5855
5788 5785 5783 5780 5778 5776 5775 5774 5773 5772 5771 5771 5771 5772 5774 5775 5777 5780 5783 5785 5789 5793 5797 5801 5803 5807 5809 5812 5814 5816 5818 5820 5822 5823 5826 5828 5829 5829 5831 5831 5836 5840 5840 5840 5842 5849 5844
5785 5783 5781 5778 5775 5773 5772 5771 5771 5770 5770 5769 5769 5770 5772 5773 5774 5776 5779 5782 5785 5789 5792 5797 5800 5802 5805 5806 5808 5810 5812 5813 5816 5818 5819 5820 5821 5823 5824 5825 5830 5833 5833 5834 5836 5836 5839
5783 5781 5779 5776 5773 5771 5769 5769 5768 5768 5768 5768 5768 5768 5769 5770 5772 5773 5775 5778 5781 5784 5787 5789 5793 5795 5797 5799 5801 5802 5805 5806 5808 5811 5812 5813 5814 5816 5818 5818 5820 5822 5824 5826 5827 5828 5830
Wind_Speed
15 15 15 14 14 14 15 15 15 16 15 15 16 16 16 15 13 13 14 14 14 15 15 14 12 10 10 11 10 10 10 10 9 8 6 6 7 10 11 7 5 4 9 4 3 4 7
18 17 17 17 17 17 18 17 17 17 17 17 17 17 17 17 16 14 15 13 13 13 16 15 13 12 9 8 9 10 10 9 9 8 6 7 8 10 12 8 7 8 10 4 7 7 9
19 19 18 18 19 19 19 20 20 20 20 20 19 18 18 18 18 16 15 14 13 13 15 17 15 14 11 10 9 8 8 8 8 7 7 8 10 13 10 8 9 10 7 10 10 10 6
18 20 20 20 20 20 21 22 22 22 22 22 22 21 20 20 20 19 16 16 13 13 15 17 16 16 11 13 13 10 9 9 9 9 9 11 13 13 11 9 11 12 12 12 8 8 5
19 19 21 21 21 21 22 22 23 25 25 25 25 24 24 22 21 20 19 17 15 14 15 17 17 16 15 17 13 12 11 10 10 10 10 12 13 12 13 17 14 12 11 9 8 9 7
18 20 21 21 22 22 22 23 24 24 25 25 25 26 26 25 24 22 20 18 16 15 15 17 18 18 20 17 14 12 13 13 11 10 12 11 12 12 16 19 17 12 12 11 10 8 8
19 20 21 22 22 23 22 23 24 25 25 26 27 27 26 27 26 24 21 19 17 16 15 14 15 17 19 17 15 12 12 13 11 13 13 12 13 14 22 21 18 12 11 9 9 9 8
19 20 21 21 22 23 24 24 25 25 25 25 27 28 27 26 27 25 21 18 18 17 15 15 15 17 20 17 16 14 12 13 11 14 15 16 17 17 21 23 20 15 12 10 10 7 7
20 20 21 22 23 24 25 24 24 24 24 24 25 26 27 26 24 24 18 18 19 17 16 17 16 17 20 20 19 17 16 13 12 15 18 20 22 16 19 24 20 17 13 9 6 5 4
19 20 21 22 23 22 22 22 23 23 23 22 23 23 25 26 24 19 17 21 19 18 18 19 17 18 19 21 20 19 18 17 15 18 21 22 19 19 24 24 20 18 15 12 10 6 2
17 18 20 21 21 21 20 20 20 21 21 22 23 23 23 24 21 18 22 20 20 19 18 18 17 18 19 19 18 17 16 15 18 20 21 21 19 19 26 23 21 22 19 14 11 8 3
18 20 21 22 21 20 19 20 20 20 18 19 20 23 23 22 20 20 23 21 20 20 20 19 18 20 20 20 19 19 18 18 18 22 22 22 22 20 26 25 24 23 19 13 13 7 2
20 22 23 23 22 21 22 23 24 24 23 22 20 21 23 22 21 23 22 21 20 21 20 19 20 23 22 21 20 18 18 16 17 20 23 21 17 20 26 24 25 25 23 13 12 6 1
18 20 22 19 16 14 15 17 20 22 22 22 22 21 22 21 22 24 21 20 22 22 22 21 22 24 24 22 21 21 18 17 15 17 20 18 20 23 24 24 27 28 24 16 12 10 2
17 19 17 13 13 15 16 18 19 19 19 19 17 18 21 21 24 26 23 22 22 23 22 22 22 24 25 22 22 21 19 18 16 17 20 17 19 20 25 25 25 29 28 20 16 11 5
17 18 16 14 15 17 18 16 13 11 11 12 13 14 21 22 25 27 25 24 23 24 24 24 21 20 21 22 21 21 19 18 18 18 18 19 18 17 19 21 26 28 25 22 18 12 8
17 18 17 17 15 17 18 15 12 7 6 6 10 14 18 21 25 26 25 25 24 27 26 24 21 18 20 21 22 21 19 20 21 22 23 23 22 20 20 23 26 30 31 24 19 15 9
18 18 18 18 15 15 17 13 7 0 3 4 6 12 15 18 23 25 25 25 25 28 28 25 22 18 17 19 22 21 20 22 23 21 18 24 27 25 24 23 25 28 34 22 20 14 12
20 18 19 19 16 14 15 11 6 1 2 4 7 9 14 18 22 24 27 25 23 26 29 26 21 18 16 20 20 18 19 21 23 23 21 26 26 29 25 20 21 24 28 27 21 19 15
21 18 18 19 18 13 13 11 8 2 2 5 9 10 11 18 22 21 21 21 23 24 27 27 23 19 21 24 22 22 21 22 21 25 26 29 25 23 20 18 16 20 25 22 21 21 20
21 19 17 18 17 14 12 11 9 4 2 5 9 11 13 17 22 22 23 22 23 23 23 26 23 22 28 29 26 23 17 18 23 25 30 32 26 27 26 24 23 28 26 24 26 25 23
20 20 17 17 16 16 11 10 9 6 4 4 6 8 13 16 21 22 22 23 22 20 24 25 25 22 28 30 28 24 21 20 22 27 29 29 23 28 30 29 27 27 28 24 24 22 18
19 21 18 16 15 15 14 8 8 8 4 3 5 8 9 14 18 20 21 22 21 20 22 26 27 26 27 31 31 26 24 25 25 26 28 26 24 22 21 22 22 26 27 27 27 27 24
19 20 19 16 14 14 13 12 7 7 6 2 4 6 10 10 16 19 21 22 21 21 21 21 22 22 23 25 31 32 29 31 28 29 28 30 28 30 28 27 32 28 24 25 29 30 30
19 20 19 17 14 12 12 11 10 5 5 3 2 7 9 9 13 17 21 23 22 21 21 21 20 18 16 19 20 21 23 31 22 31 28 31 35 34 32 34 34 33 28 32 31 29 24
19 19 19 18 15 11 9 9 8 8 4 3 2 5 10 11 11 14 19 22 23 24 24 23 22 22 22 17 16 14 16 14 18 20 19 22 27 34 36 38 40 32 33 27 24 28 20
18 17 16 17 16 12 9 8 8 7 7 4 4 5 8 12 14 15 16 21 24 24 23 23 22 24 23 21 21 20 21 21 21 23 20 21 22 24 22 24 24 23 20 17 22 17 23
15 15 15 17 16 13 10 7 7 7 5 5 4 6 7 10 14 15 14 17 23 26 27 27 26 24 23 24 25 26 27 27 25 21 21 23 22 20 19 23 29 21 20 20 20 24 24
15 15 16 17 16 14 11 8 7 6 6 5 4 4 9 10 13 15 15 15 18 21 24 28 28 26 26 24 25 25 28 27 27 26 24 25 25 25 25 23 22 21 22 24 26 28 28
Wind_Direction
265 261 261 259 259 259 260 260 258 256 255 257 258 255 254 253 261 272 288 274 265 250 243 246 243 239 240 238 232 238 234 242 231 210 195 173 157 149 162 175 196 237 282 317 109 133 119
269 264 262 261 259 258 257 257 257 256 256 254 257 258 254 255 255 264 278 281 267 251 235 239 237 232 231 222 225 227 227 225 221 213 177 173 156 156 151 166 197 250 252 248 166 115 96
274 271 265 262 263 261 260 258 256 255 257 258 254 257 257 254 254 258 268 280 266 250 233 234 232 227 220 221 221 222 221 214 202 207 167 166 163 162 167 185 202 208 203 176 149 129 125
274 276 273 268 264 262 262 261 259 256 254 254 256 256 257 255 256 256 261 271 269 251 236 231 231 227 215 218 225 223 218 206 191 180 159 163 172 169 168 170 164 177 169 160 142 138 148
279 278 277 274 272 269 267 265 262 262 260 255 252 253 255 258 258 256 254 263 268 256 240 232 231 227 215 224 228 230 221 202 195 172 170 172 177 174 165 162 172 177 149 148 146 173 190
286 284 282 280 278 276 272 270 268 265 264 263 259 254 251 253 257 259 255 254 264 260 248 235 229 224 224 229 232 234 227 213 203 190 187 181 187 183 166 166 172 180 151 161 169 181 216
291 288 286 283 282 281 277 273 269 268 266 265 263 260 255 252 251 254 257 253 254 255 250 236 226 216 218 223 224 225 223 211 199 193 187 183 191 190 173 173 182 184 174 182 192 194 223
294 291 288 287 286 284 281 278 277 275 270 264 262 261 259 255 251 249 251 249 247 248 241 226 220 220 219 218 216 219 207 208 215 194 189 188 189 195 189 180 188 183 188 187 185 184 207
299 296 293 290 287 284 283 281 279 275 272 269 262 258 257 254 251 246 242 241 239 239 232 223 219 221 224 215 202 207 204 207 197 195 192 187 197 208 195 183 182 180 195 197 195 183 203
302 300 297 293 289 286 284 281 279 277 273 267 262 257 253 250 246 240 228 231 230 230 227 220 218 211 215 213 207 207 206 205 190 193 197 196 200 196 191 183 181 183 198 203 202 179 202
310 306 300 296 292 288 284 281 280 279 279 270 261 254 248 245 239 227 225 222 221 222 220 218 213 207 210 211 202 200 210 213 191 197 201 200 191 197 191 192 188 197 187 200 196 190 164
314 306 303 299 295 288 283 280 278 275 277 276 266 250 244 238 227 217 220 216 213 213 211 210 208 202 204 201 196 201 208 209 201 200 200 204 201 196 195 199 198 208 195 203 210 190 262
319 315 309 303 296 289 285 281 277 272 269 269 276 254 237 230 216 213 213 211 207 209 208 204 198 197 200 199 204 208 212 223 218 205 207 208 199 199 200 203 203 212 217 216 227 187 249
329 327 320 316 317 307 301 293 280 272 267 261 266 251 228 220 208 209 207 204 204 206 204 201 202 202 204 202 203 203 206 215 213 211 206 197 188 194 202 209 210 214 223 224 196 191 191
337 338 340 343 342 332 323 308 291 277 269 264 254 238 214 209 203 204 203 203 204 203 200 203 204 203 210 206 204 207 204 208 200 199 202 186 188 193 205 216 221 224 228 220 197 186 177
344 346 347 339 337 335 334 322 310 288 265 251 240 222 200 201 201 201 201 206 200 200 199 202 205 202 204 208 210 210 205 207 194 192 197 185 183 196 202 216 224 222 210 209 199 186 182
350 349 350 343 333 336 340 333 324 295 268 243 220 198 196 200 199 198 199 205 199 197 198 202 203 198 203 208 211 212 210 203 201 197 197 187 188 199 207 211 219 217 209 211 210 207 208
353 349 353 352 346 343 348 345 345 323 151 156 177 189 192 195 195 194 199 204 202 196 199 202 207 199 209 213 217 213 209 199 201 212 211 198 190 199 207 211 219 218 211 214 218 214 212
354 351 352 356 356 350 357 354 353 256 196 200 191 192 190 190 191 193 202 207 203 197 201 203 206 204 210 207 204 200 204 205 198 202 206 202 197 196 214 224 226 221 210 208 218 230 240
355 355 353 357 1 352 359 0 356 307 212 186 186 185 187 188 189 196 202 205 206 204 199 205 211 207 205 195 195 192 204 215 208 195 194 195 196 209 208 213 216 210 199 210 225 235 244
355 355 353 355 358 360 354 358 359 331 244 206 197 194 181 184 191 195 197 202 208 207 198 199 209 204 196 188 191 193 205 210 208 200 192 197 202 207 209 207 205 200 212 227 236 246 253
353 356 355 353 357 2 354 356 354 348 285 218 206 198 194 192 194 200 200 201 209 204 203 199 207 207 204 200 198 196 198 196 200 193 197 206 208 215 216 215 216 217 218 226 235 243 251
349 353 355 351 351 355 1 351 354 356 325 239 193 185 188 198 199 201 202 203 207 206 202 201 211 221 220 215 214 206 210 201 194 208 210 211 216 221 226 229 236 237 243 237 242 243 250
341 347 350 349 344 347 353 359 345 350 359 285 207 183 183 199 204 205 204 207 209 210 207 200 208 219 225 220 231 221 219 208 209 210 217 222 226 222 229 234 240 236 241 255 258 260 264
332 336 340 345 340 333 341 350 356 337 338 348 196 192 198 203 204 207 208 209 213 219 220 211 213 215 219 241 224 260 219 220 233 211 212 230 235 236 233 237 244 245 253 261 248 243 251
327 329 331 336 339 326 323 330 341 352 312 303 290 189 205 214 205 200 211 211 212 218 221 229 223 228 235 235 244 255 264 258 257 265 263 258 254 250 245 251 251 262 258 268 273 257 241
325 329 331 332 333 327 315 312 316 324 339 284 255 228 208 217 225 224 216 216 217 218 219 224 228 233 236 237 244 249 252 258 265 265 263 263 264 256 249 261 258 252 232 237 256 248 239
334 335 335 333 330 325 314 297 298 305 308 325 282 237 226 220 222 231 224 220 220 222 226 227 232 237 243 248 250 253 254 257 259 264 253 254 252 239 240 241 239 233 237 245 248 249 247
338 336 337 337 331 322 314 298 281 288 293 291 298 275 238 235 230 232 232 228 227 228 230 233 236 239 245 252 253 252 252 253 253 251 257 255 257 251 249 253 254 249 247 246 252 255 254